Location: Bagnolo San Vito
(45.0833°N, 10.8833°E)
Time: 00:02:28
(UTC+00:00)

COSMOS 2428 - Pass Details

Date: 03 March 2021
Orbit: 845 x 858 km, 70.9° (Epoch: 17 April)

Event Time Altitude Azimuth Distance (km) Brightness Sun altitude
Rises 19:16:12 0° 195° (SSW) 3,390 5.9 -23.5°
Reaches altitude 10° 19:18:39 10° 193° (SSW) 2,459 5.1 -23.9°
Maximum altitude 19:24:15 67° 112° (ESE) 916 2.5 -24.8°
Enters shadow 19:24:45 64° 80° (E) 939 2.6 -24.9°
Exits shadow 19:32:04 - 29° (NNE) 3,308 5.7 -26.2°
Sets 19:32:21 0° 29° (NNE) 3,422 5.8 -26.2°
